Simultaneous Nadir Overpasses (SNOs) Predictions

Prediction of SNOs between GOES-16 and LANDSAT-8 Satellite Orbit:

Table of predicted SNOs for the next 14.0 days since TLE Epoch: 10/3/2020
Index Date Time (GOES-16) GOES-16 Lat,Lon LANDSAT-8 Lat,Lon Distance(km) Time Diff (sec)
1 10/03/2020 03:24:48 0.03, -75.20 -0.49, -77.64 277.65 80
2 10/05/2020 03:09:57 0.03, -75.22 0.14, -74.68 61.51 80
3 10/07/2020 02:57:46 0.03, -75.25 0.77, -71.73 400.96 80
4 10/07/2020 15:21:42 -0.02, -75.28 0.31, -76.89 182.11 80
5 10/09/2020 15:06:51 -0.02, -75.32 -0.32, -73.93 157.63 80
6 10/10/2020 03:30:54 0.02, -75.30 -0.80, -79.12 433.86 80
7 10/11/2020 14:54:40 -0.02, -75.35 -0.95, -70.97 497.65 80
8 10/12/2020 03:18:44 0.02, -75.34 -0.17, -76.16 93.74 80
9 10/14/2020 03:03:53 0.02, -75.38 0.47, -73.21 246.92 80
10 10/14/2020 15:27:48 -0.02, -75.41 0.61, -78.37 335.96 80
11 10/16/2020 15:12:57 -0.02, -75.46 -0.02, -75.41 5.48 80
